This is the latest recevied weather packets stored in our database for station/object K8JMX-13. If no packets are shown the sender has not sent any weather packets the latest 1 day(s).
| Time | Temp. | Humidity | Pressure | Rain* | Wind** | Luminosity | Snow |
|---|---|---|---|---|---|---|---|
| 1778040703 | 10° C | 91% | 1006.1 hPa | 0 mm | - | 0 W/m² | - |
| 1778040401 | 10° C | 91% | 1006.4 hPa | 0 mm | - | 0 W/m² | - |
| 1778040098 | 10° C | 91% | 1006.3 hPa | 0 mm | - | 0 W/m² | - |
| 1778039795 | 10.56° C | 91% | 1006.6 hPa | 1.27 mm | - | 0 W/m² | - |
| 1778039491 | 10.56° C | 91% | 1006.6 hPa | 1.27 mm | - | 0 W/m² | - |
| 1778039189 | 10.56° C | 91% | 1006.7 hPa | 0 mm | - | 0 W/m² | - |
| 1778038583 | 10.56° C | 91% | 1006.8 hPa | 1.27 mm | - | 0 W/m² | - |
| 1778038280 | 10.56° C | 90% | 1006.8 hPa | 3.05 mm | - | 0 W/m² | - |
| 1778037977 | 10.56° C | 90% | 1006.8 hPa | 3.56 mm | - | 0 W/m² | - |
| 1778037674 | 11.11° C | 90% | 1006.8 hPa | 4.83 mm | - | 0 W/m² | - |
| 1778037371 | 12.22° C | 90% | 1007.1 hPa | 6.1 mm | - | 0 W/m² | - |
| 1778037068 | 13.33° C | 90% | 1007.1 hPa | 7.11 mm | - | 0 W/m² | - |
| 1778036160 | 15° C | 90% | 1006.9 hPa | 1.78 mm | - | 0 W/m² | - |
| 1778035856 | 15° C | 90% | 1007 hPa | 0 mm | - | 0 W/m² | - |
| 1778035553 | 15° C | 90% | 1006.8 hPa | 1.27 mm | - | 0 W/m² | - |
| 1778035250 | 15° C | 91% | 1006.7 hPa | 1.27 mm | - | 0 W/m² | - |
| 1778034945 | 15° C | 91% | 1006.7 hPa | 1.78 mm | - | 0 W/m² | - |
| 1778034038 | 15° C | 91% | 1006.7 hPa | 1.27 mm | - | 0 W/m² | - |
| 1778033433 | 15° C | 91% | 1006.7 hPa | 3.05 mm | - | 0 W/m² | - |
| 1778033130 | 15° C | 91% | 1006.9 hPa | 3.05 mm | - | 0 W/m² | - |
| 1778032525 | 15° C | 91% | 1006.9 hPa | 3.05 mm | - | 0 W/m² | - |
| 1778032221 | 15° C | 91% | 1006.8 hPa | 3.05 mm | - | 0 W/m² | - |
| 1778031919 | 15.56° C | 92% | 1006.8 hPa | 3.05 mm | - | 0 W/m² | - |
| 1778031615 | 15.56° C | 92% | 1006.5 hPa | 3.05 mm | - | 0 W/m² | - |
| 1778031313 | 15.56° C | 92% | 1006.7 hPa | 3.05 mm | - | 0 W/m² | - |
* Rain latest hour (hover to see other rain measurements)
** Current wind speed in m/s (hover to see current wind gust speed)